Stevens Point, WI

2:02 AM CST on November 23, 2017 (GMT -0600)
Stevens Point Municipal

Weather History for KSTE - March, 2013

Change the Weather History Date:

Sunday, March 31, 2013

  Actual Average Record
Temperature  
Mean Temperature 32 °F -  
Max Temperature 36 °F 48 °F 78 °F (1967)
Min Temperature 27 °F 28 °F 0 °F (1969)
Degree Days  
Heating Degree Days 34    
Moisture  
Dew Point 26 °F    
Average Humidity 77    
Maximum Humidity 100    
Minimum Humidity 38    
Precipitation  
Precipitation 0.00 in - - ()
Sea Level Pressure  
Sea Level Pressure 29.75 in    
Wind  
Wind Speed 8 mph (WNW)    
Max Wind Speed 18 mph    
Max Gust Speed 26 mph    
Visibility 6 miles    
Events Fog , Rain , Snow    
Averages and records for this station are not official NWS values.
T = Trace of Precipitation, MM = Missing Value Source: NWS Daily Summary

Daily Weather History Graph

Daily Weather History Graph

Search for Another Location

Airport or City:

Trip Planner

Search our weather history database for the weather conditions in past years. The results will help you decide how hot, cold, wet, or windy it might be!

Date:

Astronomy

Mar. 31, 2013 Rise Set
Actual Time 6:40 AM CDT 7:24 PM CDT
Civil Twilight 6:11 AM CDT 7:54 PM CDT
Nautical Twilight 5:36 AM CDT 8:29 PM CDT
Astronomical Twilight 4:59 AM CDT 9:05 PM CDT
Moon No Moon Rise 9:17 AM CDT (3/31)
Length of Visible Light 13h 43m
Length of Day
12h 44m
Waning Gibbous, 77% of the Moon is Illuminated
Mar 31
Waning Gibbous
Apr 2
Last Quarter
Apr 10
New
Apr 18
First Quarter
Apr 25
Full

Hourly Weather History & Observations

Time (CDT) Temp. Windchill Dew Point Humidity Pressure Visibility Wind Dir Wind Speed Gust Speed Precip Events Conditions
12:15 AM 34.7 °F 30.6 °F 33.8 °F 97% 29.79 in 5.0 mi WSW 4.6 mph - N/A   Overcast
12:35 AM 34.5 °F 30.4 °F 33.3 °F 95% 29.79 in 5.0 mi West 4.6 mph - N/A   Overcast
12:55 AM 34.0 °F 31.0 °F 33.1 °F 96% 29.78 in 4.0 mi WSW 3.5 mph - N/A   Overcast
1:15 AM 33.8 °F 28.6 °F 33.1 °F 97% 29.78 in 3.0 mi WSW 5.8 mph - N/A   Overcast
1:35 AM 33.4 °F 30.4 °F 32.9 °F 98% 29.78 in 2.0 mi West 3.5 mph - N/A   Overcast
1:55 AM 33.1 °F 28.7 °F 32.9 °F 99% 29.76 in 0.8 mi SW 4.6 mph - N/A   Overcast
2:15 AM 33.1 °F 30.0 °F 32.9 °F 99% 29.76 in 0.5 mi SW 3.5 mph - N/A Fog Fog
2:35 AM 33.1 °F 28.7 °F 32.9 °F 99% 29.75 in 0.5 mi SW 4.6 mph - N/A Fog Fog
2:55 AM 33.4 °F 28.1 °F 33.3 °F 99% 29.74 in 0.8 mi WSW 5.8 mph - N/A   Overcast
3:15 AM 34.0 °F 27.2 °F 34.0 °F 100% 29.74 in 0.5 mi WSW 8.1 mph - N/A Fog Fog
3:35 AM 33.8 °F 27.7 °F 33.8 °F 100% 29.74 in 0.5 mi West 6.9 mph - N/A Fog Fog
3:55 AM 33.4 °F 27.3 °F 33.4 °F 100% 29.73 in 0.5 mi West 6.9 mph - N/A Fog Fog
4:15 AM 33.4 °F 29.1 °F 33.4 °F 100% 29.72 in 0.8 mi West 4.6 mph - N/A   Overcast
4:35 AM 33.1 °F 26.1 °F 33.1 °F 100% 29.72 in 1.2 mi West 8.1 mph - N/A   Overcast
4:55 AM 32.9 °F 26.7 °F 32.9 °F 100% 29.72 in 2.5 mi West 6.9 mph - N/A   Overcast
5:15 AM 32.5 °F 26.2 °F 32.4 °F 99% 29.71 in 2.5 mi West 6.9 mph - N/A   Overcast
5:35 AM 32.2 °F 24.4 °F 32.0 °F 99% 29.72 in 2.5 mi West 9.2 mph - N/A   Overcast
5:55 AM 32.0 °F 24.2 °F 32.0 °F 100% 29.71 in 2.5 mi West 9.2 mph - N/A   Overcast
6:15 AM 32.0 °F 27.5 °F 32.0 °F 100% 29.71 in 3.0 mi West 4.6 mph - N/A   Overcast
6:35 AM 32.0 °F 27.5 °F 31.8 °F 99% 29.70 in 3.0 mi West 4.6 mph - N/A   Overcast
6:55 AM 32.0 °F 24.2 °F 31.8 °F 99% 29.71 in 1.8 mi West 9.2 mph 16.1 mph N/A   Overcast
7:15 AM 32.0 °F 24.2 °F 31.5 °F 98% 29.71 in 2.5 mi West 9.2 mph 18.4 mph N/A   Overcast
7:35 AM 32.0 °F 25.6 °F 31.1 °F 96% 29.71 in 2.5 mi West 6.9 mph - N/A   Overcast
7:55 AM 32.0 °F 24.8 °F 30.9 °F 96% 29.71 in 3.0 mi West 8.1 mph - N/A   Overcast
8:15 AM 32.0 °F 26.4 °F 30.7 °F 95% 29.70 in 3.0 mi West 5.8 mph - N/A   Overcast
8:35 AM 32.0 °F 24.2 °F 30.6 °F 94% 29.70 in 3.0 mi West 9.2 mph - N/A   Overcast
8:55 AM 32.4 °F 23.5 °F 30.2 °F 92% 29.69 in 4.0 mi West 11.5 mph 16.1 mph N/A   Overcast
9:15 AM 32.9 °F 26.7 °F 30.0 °F 89% 29.70 in 5.0 mi West 6.9 mph 18.4 mph N/A   Overcast
9:35 AM 33.4 °F 26.6 °F 29.7 °F 86% 29.69 in 5.0 mi West 8.1 mph - N/A   Mostly Cloudy
9:55 AM 34.2 °F 26.8 °F 29.3 °F 82% 29.69 in 7.0 mi West 9.2 mph 17.3 mph N/A   Scattered Clouds
10:15 AM 35.4 °F 29.0 °F 28.4 °F 76% 29.68 in 7.0 mi West 8.1 mph - N/A   Scattered Clouds
10:35 AM 36.1 °F 28.7 °F 28.8 °F 75% 29.68 in 10.0 mi WSW 10.4 mph 16.1 mph N/A   Scattered Clouds
10:55 AM 36.7 °F 30.5 °F 28.6 °F 72% 29.68 in 10.0 mi West 8.1 mph - N/A   Clear
11:15 AM 36.9 °F 27.8 °F 28.6 °F 72% 29.69 in 10.0 mi WNW 15.0 mph 20.7 mph N/A   Scattered Clouds
11:35 AM 36.1 °F 28.2 °F 28.0 °F 72% 29.69 in 10.0 mi West 11.5 mph 19.6 mph N/A   Mostly Cloudy
11:55 AM 35.2 °F 27.6 °F 27.3 °F 73% 29.69 in 10.0 mi WNW 10.4 mph 24.2 mph N/A   Overcast
12:15 PM 34.9 °F 24.9 °F 27.3 °F 74% 29.70 in 10.0 mi West 16.1 mph 21.9 mph N/A   Overcast
12:35 PM 33.3 °F 23.7 °F 27.5 °F 79% 29.70 in 7.0 mi West 13.8 mph 25.3 mph N/A   Overcast
12:55 PM 33.3 °F 22.5 °F 27.7 °F 80% 29.70 in 7.0 mi West 17.3 mph 24.2 mph N/A   Overcast
1:15 PM 33.4 °F 25.4 °F 27.7 °F 79% 29.71 in 5.0 mi West 10.4 mph 21.9 mph N/A   Haze
1:35 PM 33.1 °F 24.4 °F 28.4 °F 83% 29.71 in 4.0 mi West 11.5 mph 16.1 mph N/A   Haze
1:55 PM 33.4 °F 24.8 °F 28.9 °F 84% 29.71 in 5.0 mi West 11.5 mph 17.3 mph N/A   Haze
2:15 PM 33.1 °F 26.1 °F 29.5 °F 87% 29.71 in 5.0 mi West 8.1 mph 17.3 mph N/A Snow Light Snow
2:35 PM 34.9 °F 25.7 °F 28.8 °F 78% 29.70 in 7.0 mi West 13.8 mph 19.6 mph N/A   Overcast
2:55 PM 36.0 °F 27.5 °F 27.3 °F 71% 29.69 in 10.0 mi West 12.7 mph 19.6 mph N/A   Overcast
3:15 PM 36.0 °F 29.6 °F 25.3 °F 65% 29.70 in 10.0 mi West 8.1 mph 24.2 mph N/A   Overcast
3:35 PM 31.8 °F 24.6 °F 30.2 °F 94% 29.72 in 0.5 mi WNW 8.1 mph 17.3 mph N/A Rain Light Freezing Rain
3:55 PM 32.4 °F 24.6 °F 28.4 °F 85% 29.71 in 10.0 mi West 9.2 mph - N/A   Mostly Cloudy
4:15 PM 34.2 °F 26.8 °F 27.1 °F 75% 29.71 in 10.0 mi WNW 9.2 mph 20.7 mph N/A   Scattered Clouds
4:35 PM 34.0 °F 24.6 °F 24.8 °F 69% 29.72 in 7.0 mi NW 13.8 mph 26.5 mph N/A   Mostly Cloudy
4:55 PM 35.8 °F 27.3 °F 24.3 °F 63% 29.72 in 10.0 mi WNW 12.7 mph 19.6 mph N/A   Mostly Cloudy
5:15 PM 35.6 °F 28.6 °F 20.1 °F 53% 29.72 in 10.0 mi WNW 9.2 mph 20.7 mph N/A   Scattered Clouds
5:35 PM 35.2 °F 26.6 °F 14.7 °F 43% 29.74 in 10.0 mi NW 12.7 mph 24.2 mph N/A   Clear
5:55 PM 34.9 °F 25.7 °F 12.9 °F 40% 29.75 in 10.0 mi NW 13.8 mph 26.5 mph N/A   Scattered Clouds
6:15 PM 35.2 °F 27.1 °F 11.7 °F 38% 29.76 in 10.0 mi NW 11.5 mph 25.3 mph N/A   Mostly Cloudy
6:35 PM 34.9 °F 24.2 °F 11.5 °F 38% 29.77 in 10.0 mi WNW 18.4 mph 25.3 mph N/A   Overcast
6:55 PM 33.8 °F 23.5 °F 10.4 °F 38% 29.78 in 10.0 mi NW 16.1 mph 21.9 mph N/A   Mostly Cloudy
7:15 PM 33.1 °F 23.9 °F 10.4 °F 39% 29.79 in 10.0 mi WNW 12.7 mph 18.4 mph N/A   Mostly Cloudy
7:35 PM 32.2 °F 22.7 °F 11.1 °F 42% 29.80 in 10.0 mi NW 12.7 mph 20.7 mph N/A   Scattered Clouds
7:55 PM 32.0 °F 25.6 °F 11.8 °F 43% 29.81 in 10.0 mi NW 6.9 mph 16.1 mph N/A   Mostly Cloudy
8:15 PM 31.6 °F 26.0 °F 12.7 °F 46% 29.83 in 10.0 mi NW 5.8 mph - N/A   Mostly Cloudy
8:35 PM 31.1 °F 23.7 °F 13.3 °F 48% 29.84 in 10.0 mi NNW 8.1 mph - N/A   Overcast
8:55 PM 30.4 °F 22.9 °F 13.8 °F 50% 29.84 in 10.0 mi NNW 8.1 mph - N/A   Overcast
9:15 PM 29.8 °F 24.9 °F 13.6 °F 51% 29.85 in 10.0 mi NW 4.6 mph - N/A   Scattered Clouds
9:35 PM 29.5 °F 21.1 °F 12.9 °F 50% 29.86 in 10.0 mi NNW 9.2 mph - N/A   Mostly Cloudy
9:55 PM 28.8 °F 23.7 °F 14.2 °F 55% 29.87 in 10.0 mi North 4.6 mph - N/A   Mostly Cloudy
10:15 PM 28.0 °F 20.0 °F 15.6 °F 60% 29.88 in 10.0 mi NNW 8.1 mph - N/A   Overcast
10:35 PM 27.5 °F 20.2 °F 16.0 °F 62% 29.89 in 10.0 mi North 6.9 mph - N/A   Overcast
10:55 PM 27.5 °F 21.1 °F 15.8 °F 61% 29.89 in 10.0 mi NNW 5.8 mph - N/A   Overcast
11:15 PM 27.5 °F 16.8 °F 16.5 °F 63% 29.90 in 10.0 mi North 12.7 mph 20.7 mph N/A   Overcast
11:55 PM 27.0 °F 17.3 °F 12.9 °F 56% 29.91 in 10.0 mi NNW 10.4 mph - N/A   Overcast